Date String (YYYY-MM-DD hh:mm:ss) UTC,Instrument flags,Ambient pressure (hPa),Sample flow (lpm),Bypass flow (lpm),Sample temperature (°C),Ambient temperature (°C),ASC tube jacket temperature (°C),LED temperature (°C),Box temperature (°C),Sample RH (%),Span deviation,Mass concentration (μg/m³),Mass concentration (μg/m³),Mass concentration (μg/m³)
DateTimeUTC,F1_M11,P_M11,Q1_M11,Q2_M11,T1_M11,T2_M11,T3_M11,T4_M11,T5_M11,U1_M11,ZSPAN_M11,X0_M11,X2_M11,X1_M11
2022-01-17 09:00:00,,0823.7,5.00,0.00,22.6,23.1,00.0,31.5,24.6,10.6,0000.0,0007.51,0003.41,0002.88
2022-01-17 09:01:00,,0823.8,5.00,0.00,22.6,22.9,00.0,31.5,24.6,10.6,0000.0,0007.46,0003.39,0002.88
2022-01-17 09:02:00,,0823.9,5.00,0.00,22.7,22.7,00.0,31.5,24.6,10.5,0000.0,0007.03,0003.37,0002.87
2022-01-17 09:03:00,,0823.8,4.99,0.00,22.7,22.6,00.0,31.5,24.6,10.5,0000.0,0006.87,0003.35,0002.87
2022-01-17 09:04:00,,0823.8,5.00,0.00,22.7,22.5,00.0,31.5,24.6,10.5,0000.0,0006.72,0003.36,0002.87
2022-01-17 09:05:00,,0823.8,5.00,0.00,22.7,22.4,00.0,31.5,24.5,10.5,0000.0,0007.00,0003.34,0002.86
2022-01-17 09:06:00,,0823.8,5.00,0.00,22.7,22.3,00.0,31.5,24.5,10.5,0000.0,0007.40,0003.33,0002.87
2022-01-17 09:07:00,,0823.7,4.99,0.00,22.7,22.2,00.0,31.5,24.5,10.5,0000.0,0007.38,0003.29,0002.86
2022-01-17 09:08:00,,0823.7,5.00,0.00,22.6,22.1,00.0,31.5,24.4,10.5,0000.0,0007.80,0003.25,0002.85
2022-01-17 09:09:00,,0823.8,5.00,0.00,22.6,22.1,00.0,31.5,24.3,10.5,0000.0,0007.74,0003.26,0002.86
2022-01-17 09:10:00,,0823.7,5.00,0.00,22.6,22.0,00.0,31.5,24.3,10.6,0000.0,0007.22,0003.25,0002.86
2022-01-17 09:11:00,,0823.7,5.00,0.00,22.6,21.9,00.0,31.5,24.3,10.6,0000.0,0006.82,0003.24,0002.84
2022-01-17 09:12:00,,0823.6,5.02,0.00,22.5,21.9,00.0,31.5,24.3,10.6,0000.0,0006.85,0003.23,0002.85
2022-01-17 09:13:00,,0823.7,4.99,0.00,22.5,21.9,00.0,31.5,24.3,10.6,0000.0,0007.28,0003.24,0002.86
2022-01-17 09:14:00,,0823.7,5.01,0.00,22.5,21.8,00.0,31.5,24.2,10.6,0000.0,0007.64,0003.25,0002.84
2022-01-17 09:15:00,,0823.7,5.02,0.00,22.5,21.8,00.0,31.5,24.2,10.6,0000.0,0007.69,0003.26,0002.83
2022-01-17 09:16:00,,0823.7,5.00,0.00,22.5,21.8,00.0,31.5,24.2,10.6,0000.0,0007.42,0003.26,0002.82
2022-01-17 09:17:00,,0823.7,5.00,0.00,22.4,21.7,00.0,31.5,24.2,10.6,0000.0,0007.25,0003.22,0002.81
2022-01-17 09:18:00,,0823.7,5.01,0.00,22.4,21.7,00.0,31.5,24.1,10.6,0000.0,0007.53,0003.22,0002.81
2022-01-17 09:19:00,,0823.7,5.00,0.00,22.3,21.6,00.0,31.5,24.0,10.7,0000.0,0007.00,0003.25,0002.83
2022-01-17 09:20:00,,0823.6,4.99,0.00,22.3,21.6,00.0,31.4,24.0,10.7,0000.0,0007.03,0003.27,0002.84
2022-01-17 09:21:00,,0823.5,5.01,0.00,22.3,21.6,00.0,31.4,24.0,10.7,0000.0,0006.97,0003.25,0002.83
2022-01-17 09:22:00,,0823.6,4.99,0.00,22.3,21.5,00.0,31.4,24.0,10.7,0000.0,0007.09,0003.27,0002.84
2022-01-17 09:23:00,,0823.7,5.02,0.00,22.2,21.4,00.0,31.4,23.9,10.7,0000.0,0007.86,0003.28,0002.83
2022-01-17 09:24:00,,0823.6,5.00,0.00,22.2,21.4,00.0,31.4,23.9,10.7,0000.0,0007.67,0003.27,0002.82
2022-01-17 09:25:00,,0823.7,4.99,0.00,22.2,21.4,00.0,31.3,23.9,10.8,0000.0,0007.40,0003.27,0002.84
2022-01-17 09:26:00,,0823.7,5.01,0.00,22.2,21.4,00.0,31.3,23.9,10.8,0000.0,0007.38,0003.26,0002.85
2022-01-17 09:27:00,,0823.6,5.00,0.00,22.2,21.4,00.0,31.3,23.9,10.8,0000.0,0007.35,0003.24,0002.85
2022-01-17 09:28:00,,0823.4,5.00,0.00,22.2,21.5,00.0,31.3,23.9,10.8,0000.0,0007.08,0003.25,0002.85
2022-01-17 09:29:00,,0823.6,4.99,0.00,22.2,22.0,00.0,31.3,24.0,10.7,0000.0,0006.15,0003.24,0002.85
2022-01-17 09:30:00,,0823.6,5.00,0.00,22.4,22.8,00.0,31.3,24.3,10.7,0000.0,0006.21,0003.23,0002.84
2022-01-17 09:31:00,,0823.7,5.01,0.00,22.5,23.2,00.0,31.4,24.5,10.6,0000.0,0006.28,0003.20,0002.83
2022-01-17 09:32:00,,0823.7,4.99,0.00,22.6,23.0,00.0,31.4,24.5,10.5,0000.0,0006.32,0003.20,0002.81
2022-01-17 09:33:00,,0823.6,4.99,0.00,22.5,22.8,00.0,31.4,24.4,10.6,0000.0,0006.26,0003.21,0002.82
2022-01-17 09:34:00,,0823.4,5.02,0.00,22.5,22.6,00.0,31.4,24.3,10.6,0000.0,0005.08,0003.21,0002.84
2022-01-17 09:35:00,,0823.6,5.00,0.00,22.5,22.4,00.0,31.4,24.3,10.6,0000.0,0004.93,0003.22,0002.86
2022-01-17 09:36:00,,0823.7,5.00,0.00,22.5,22.2,00.0,31.4,24.3,10.6,0000.0,0004.87,0003.24,0002.87
2022-01-17 09:37:00,,0823.4,5.01,0.00,22.5,22.1,00.0,31.4,24.2,10.6,0000.0,0004.91,0003.24,0002.86
2022-01-17 09:38:00,,0823.2,5.00,0.00,22.4,22.0,00.0,31.4,24.2,10.6,0000.0,0005.06,0003.28,0002.88
2022-01-17 09:39:00,,0823.5,4.99,0.00,22.4,21.9,00.0,31.4,24.2,10.7,0000.0,0005.29,0003.33,0002.90
2022-01-17 09:40:00,,0823.7,5.00,0.00,22.4,21.9,00.0,31.4,24.2,10.7,0000.0,0005.46,0003.38,0002.92
2022-01-17 09:41:00,,0823.5,5.00,0.00,22.4,21.8,00.0,31.4,24.2,10.7,0000.0,0005.31,0003.37,0002.93
2022-01-17 09:42:00,,0823.3,5.02,0.00,22.4,21.7,00.0,31.4,24.0,10.7,0000.0,0005.23,0003.40,0002.94
2022-01-17 09:43:00,,0823.3,4.99,0.00,22.3,21.6,00.0,31.4,23.9,10.7,0000.0,0005.20,0003.41,0002.95
2022-01-17 09:44:00,,0823.3,5.02,0.00,22.2,21.6,00.0,31.4,23.9,10.8,0000.0,0005.36,0003.40,0002.93
2022-01-17 09:45:00,,0823.3,4.99,0.00,22.2,21.6,00.0,31.4,23.9,10.8,0000.0,0005.29,0003.38,0002.92
2022-01-17 09:46:00,,0823.3,4.99,0.00,22.2,21.6,00.0,31.3,24.0,10.8,0000.0,0005.52,0003.37,0002.92
2022-01-17 09:47:00,,0823.3,5.01,0.00,22.2,21.6,00.0,31.3,24.0,10.8,0000.0,0005.51,0003.34,0002.90
2022-01-17 09:48:00,,0823.4,5.01,0.00,22.2,21.6,00.0,31.3,24.0,10.8,0000.0,0005.56,0003.34,0002.91
2022-01-17 09:49:00,,0823.4,5.00,0.00,22.2,21.6,00.0,31.3,24.0,10.8,0000.0,0005.47,0003.34,0002.91
2022-01-17 09:50:00,,0823.3,5.01,0.00,22.2,21.6,00.0,31.3,24.0,10.8,0000.0,0005.29,0003.29,0002.90
2022-01-17 09:51:00,,0823.4,5.00,0.00,22.2,21.6,00.0,31.3,24.0,10.8,0000.0,0005.12,0003.25,0002.88
2022-01-17 09:52:00,,0823.3,4.99,0.00,22.3,21.6,00.0,31.3,24.0,10.8,0000.0,0005.22,0003.27,0002.87
2022-01-17 09:53:00,,0823.2,5.00,0.00,22.3,21.6,00.0,31.3,24.0,10.8,0000.0,0005.43,0003.30,0002.86
2022-01-17 09:54:00,,0823.3,5.00,0.00,22.3,21.6,00.0,31.3,24.0,10.8,0000.0,0005.59,0003.32,0002.87
2022-01-17 09:55:00,,0823.3,4.99,0.00,22.3,21.6,00.0,31.3,24.0,10.8,0000.0,0005.58,0003.33,0002.88
2022-01-17 09:56:00,,0823.4,5.01,0.00,22.2,21.6,00.0,31.3,24.0,10.8,0000.0,0005.70,0003.32,0002.86
2022-01-17 09:57:00,,0823.3,4.99,0.00,22.2,21.5,00.0,31.3,24.0,10.8,0000.0,0005.63,0003.32,0002.86
2022-01-17 09:58:00,,0823.3,5.00,0.00,22.2,21.5,00.0,31.3,23.9,10.8,0000.0,0006.40,0003.33,0002.86
2022-01-17 09:59:00,,0823.3,5.02,0.00,22.2,21.5,00.0,31.2,23.9,10.8,0000.0,0006.32,0003.32,0002.84
